Home > Weather > Annapolis County > Past weeks

Flag for Canada Weather for the Past 2 Weeks in Annapolis County, Nova Scotia, Canada

Now
27 °F

Chilly.


Feels Like: 23 °F
Forecast: 23 / 30 °F
Wind: 3 mph from West

Location: Kejimkujik 1

Current Time: Feb 10, 2016 at 12:32:29 PM

Latest Report: Feb 10, 2016 at 12:00 PM


Visibility: N/A

Pressure: 29.61 "Hg

Humidity: 96%

Dew point: 26 °F

Location of Annapolis CountyLocation

Historic Weather in Annapolis County — Graph

°F

Annapolis County Temperature Yesterday

Maximum temperature yesterday: 30 °F (at 2:00 PM)
Minimum temperature yesterday: 22 °F (at 12:00 AM)
Average temperature yesterday: 25 °F

High & Low Weather Summary for the Past Weeks

 TemperatureHumidityPressure
High51 °F (Feb 4, 8:00 AM)100% (Jan 28, 4:00 AM)30.51 "Hg (Jan 28, 4:00 AM)
Low15 °F (Feb 3, 6:00 AM)46% (Feb 2, 3:00 PM)29.12 "Hg (Jan 29, 4:00 PM)
Average32 °F88%29.88 "Hg
* Reported Jan 26 11:00 AM — Feb 10 11:00 AM, Annapolis County, Weather by CustomWeather, © 2016

Note: Actual official high and low records may vary slightly from our data, if they occured in-between our weather recording intervals... More about our weather records

Advertising

Annapolis County Weather History for the Previous 24 Hours

 ConditionsComfort  
Time TempWeatherWind HumidityBarometerVisibility
11:00 AM
Wed, Feb 10
26 °FChilly.2 mph96%29.62 "HgN/A
10:00 AM26 °FChilly.3 mph96%29.60 "HgN/A
9:00 AM25 °FChilly.2 mph97%29.58 "HgN/A
8:00 AM25 °FCold.3 mph100%29.59 "HgN/A
7:00 AM24 °FCold.3 mph97%29.56 "HgN/A
6:00 AM24 °FCold.No wind96%29.53 "HgN/A
5:00 AM26 °FChilly.2 mph90%29.55 "HgN/A
4:00 AM23 °FCold.3 mph96%29.53 "HgN/A
3:00 AM23 °FCold.1 mph96%29.52 "HgN/A
2:00 AM23 °FCold.1 mph96%29.49 "HgN/A
1:00 AM23 °FCold.2 mph96%29.48 "HgN/A
12:00 AM23 °FCold.1 mph96%29.44 "HgN/A
11:00 PM
Tue, Feb 9
24 °FCold.2 mph96%29.46 "HgN/A
10:00 PM24 °FCold.2 mph96%29.47 "HgN/A
9:00 PM24 °FCold.2 mph97%29.49 "HgN/A
8:00 PM24 °FCold.2 mph97%29.49 "HgN/A
7:00 PM25 °FChilly.2 mph97%29.50 "HgN/A
6:00 PM26 °FChilly.3 mph97%29.50 "HgN/A
5:00 PM27 °FChilly.3 mph97%29.52 "HgN/A
4:00 PM29 °FChilly.1 mph97%29.54 "HgN/A
3:00 PM30 °FChilly.1 mph96%29.55 "HgN/A
2:00 PM30 °FChilly.1 mph96%29.58 "HgN/A
1:00 PM28 °FChilly.2 mph96%29.57 "HgN/A
12:00 PM28 °FChilly.1 mph97%29.60 "HgN/A
Weather by CustomWeather, © 2016

See weather overviewHow to use our weather pages